• In Hungary
  • List of Countries
  • For 7 days
  • Water Temperature
  • Satellite Maps
  • Weather Map
  • News
  • Weather Widgets
  • user-avatar
    Login

    Hourly Weather Sulislaw

    Today, 20 August, Monday

    Time Temperature Precipitation Wind Pressure Humidity
    00:00 +24°C° 0 mm 2 mps 744 mmHg 60%
    01:00 +24°C° 0 mm 2 mps 744 mmHg 60%
    02:00 +24°C° 0.1 mm 2 mps 744 mmHg 61%
    03:00 +23°C° 0.1 mm 2 mps 744 mmHg 62%
    04:00 +23°C° 0.1 mm 2 mps 744 mmHg 63%
    05:00 +24°C° 0 mm 2 mps 744 mmHg 63%
    06:00 +24°C° 0 mm 2 mps 744 mmHg 62%
    07:00 +25°C° 0 mm 2 mps 744 mmHg 61%
    08:00 +27°C° 0 mm 2 mps 744 mmHg 56%
    09:00 +28°C° 0 mm 3 mps 744 mmHg 52%
    10:00 +30°C° 0 mm 3 mps 744 mmHg 48%
    11:00 +30°C° 0 mm 3 mps 744 mmHg 46%
    12:00 +31°C° 0 mm 3 mps 744 mmHg 44%
    13:00 +33°C° 0 mm 3 mps 744 mmHg 42%
    14:00 +33°C° 0 mm 3 mps 744 mmHg 42%
    15:00 +31°C° 0 mm 3 mps 743 mmHg 43%
    16:00 +31°C° 0 mm 3 mps 743 mmHg 44%
    17:00 +29°C° 0 mm 3 mps 743 mmHg 49%
    18:00 +28°C° 0 mm 3 mps 743 mmHg 54%
    19:00 +26°C° 0 mm 3 mps 743 mmHg 59%
    20:00 +25°C° 0 mm 3 mps 744 mmHg 64%
    21:00 +24°C° 0 mm 3 mps 744 mmHg 68%
    22:00 +21°C° 0 mm 2 mps 745 mmHg 73%
    23:00 +21°C° 0 mm 2 mps 745 mmHg 75%

    Tomorrow, 21 August, Tuesday

    Time Temperature Precipitation Wind Pressure Humidity
    00:00 +20°C° 0 mm 2 mps 745 mmHg 78%
    01:00 +20°C° 0 mm 2 mps 745 mmHg 80%
    02:00 +19°C° 0 mm 2 mps 745 mmHg 82%
    03:00 +19°C° 0 mm 2 mps 745 mmHg 84%
    04:00 +18°C° 0 mm 2 mps 746 mmHg 86%
    05:00 +19°C° 0 mm 2 mps 746 mmHg 84%
    06:00 +20°C° 0 mm 2 mps 746 mmHg 81%
    07:00 +20°C° 0 mm 2 mps 746 mmHg 79%
    08:00 +21°C° 0.1 mm 2 mps 747 mmHg 75%
    09:00 +22°C° 0.1 mm 3 mps 747 mmHg 72%
    10:00 +22°C° 0.1 mm 3 mps 747 mmHg 68%
    11:00 +24°C° 0 mm 3 mps 747 mmHg 64%
    12:00 +25°C° 0 mm 3 mps 747 mmHg 61%
    13:00 +25°C° 0 mm 3 mps 747 mmHg 57%
    14:00 +25°C° 0 mm 3 mps 746 mmHg 56%
    15:00 +26°C° 0 mm 3 mps 746 mmHg 55%
    16:00 +26°C° 0 mm 3 mps 746 mmHg 54%
    17:00 +24°C° 0 mm 2 mps 746 mmHg 58%
    18:00 +23°C° 0 mm 2 mps 746 mmHg 62%
    19:00 +22°C° 0 mm 1 mps 746 mmHg 65%
    20:00 +21°C° 0 mm 1 mps 746 mmHg 67%
    21:00 +20°C° 0 mm 1 mps 747 mmHg 68%
    22:00 +20°C° 0 mm 1 mps 747 mmHg 69%
    23:00 +19°C° 0 mm 1 mps 747 mmHg 69%

    Day after tomorrow, 22 August, Wednesday

    Time Temperature Precipitation Wind Pressure Humidity
    00:00 +19°C° 0 mm 1 mps 747 mmHg 70%
    01:00 +18°C° 0 mm 1 mps 747 mmHg 71%
    02:00 +18°C° 0 mm 1 mps 747 mmHg 72%
    03:00 +18°C° 0 mm 1 mps 747 mmHg 72%
    04:00 +16°C° 0 mm 1 mps 747 mmHg 73%
    05:00 +19°C° 0 mm 1 mps 747 mmHg 70%
    06:00 +20°C° 0 mm 1 mps 747 mmHg 67%
    07:00 +21°C° 0 mm 1 mps 747 mmHg 64%
    08:00 +22°C° 0 mm 1 mps 747 mmHg 59%
    09:00 +24°C° 0 mm 2 mps 747 mmHg 54%
    10:00 +26°C° 0 mm 2 mps 747 mmHg 49%
    11:00 +27°C° 0 mm 2 mps 747 mmHg 47%
    12:00 +28°C° 0 mm 2 mps 746 mmHg 44%
    13:00 +28°C° 0 mm 2 mps 746 mmHg 42%
    14:00 +29°C° 0 mm 2 mps 746 mmHg 42%
    15:00 +29°C° 0 mm 1 mps 745 mmHg 42%
    16:00 +29°C° 0 mm 1 mps 745 mmHg 42%
    17:00 +27°C° 0 mm 1 mps 745 mmHg 47%
    18:00 +26°C° 0 mm 1 mps 745 mmHg 52%
    19:00 +24°C° 0 mm 1 mps 745 mmHg 57%
    20:00 +23°C° 0 mm 2 mps 745 mmHg 58%
    21:00 +21°C° 0 mm 2 mps 745 mmHg 60%
    22:00 +21°C° 0 mm 2 mps 745 mmHg 62%
    23:00 +20°C° 0 mm 2 mps 745 mmHg 64%

    23 August, Thursday

    Time Temperature Precipitation Wind Pressure Humidity
    00:00 +20°C° 0 mm 2 mps 744 mmHg 66%
    01:00 +19°C° 0 mm 2 mps 744 mmHg 68%
    02:00 +19°C° 0 mm 2 mps 744 mmHg 68%
    03:00 +19°C° 0 mm 2 mps 744 mmHg 69%
    04:00 +19°C° 0 mm 2 mps 743 mmHg 70%
    05:00 +20°C° 0 mm 2 mps 743 mmHg 68%
    06:00 +21°C° 0 mm 2 mps 743 mmHg 66%
    07:00 +23°C° 0 mm 2 mps 743 mmHg 64%
    08:00 +25°C° 0 mm 2 mps 743 mmHg 58%
    09:00 +27°C° 0 mm 2 mps 743 mmHg 53%
    10:00 +29°C° 0 mm 2 mps 743 mmHg 47%
    11:00 +30°C° 0.1 mm 3 mps 742 mmHg 46%
    12:00 +31°C° 0.1 mm 3 mps 742 mmHg 44%
    13:00 +33°C° 0.1 mm 3 mps 742 mmHg 42%
    14:00 +33°C° 0.1 mm 3 mps 741 mmHg 44%
    15:00 +31°C° 0.1 mm 3 mps 741 mmHg 45%
    16:00 +31°C° 0.1 mm 3 mps 741 mmHg 47%
    17:00 +30°C° 0.1 mm 3 mps 741 mmHg 52%
    18:00 +28°C° 0.1 mm 2 mps 740 mmHg 58%
    19:00 +26°C° 0.1 mm 2 mps 740 mmHg 63%
    20:00 +26°C° 0.1 mm 2 mps 740 mmHg 65%
    21:00 +25°C° 0.1 mm 2 mps 740 mmHg 67%
    22:00 +24°C° 0.1 mm 2 mps 740 mmHg 69%
    23:00 +24°C° 0.2 mm 2 mps 740 mmHg 70%

    24 August, Friday

    Time Temperature Precipitation Wind Pressure Humidity
    00:00 +24°C° 0.2 mm 2 mps 740 mmHg 72%
    01:00 +23°C° 0.2 mm 2 mps 739 mmHg 73%
    02:00 +23°C° 0.2 mm 2 mps 739 mmHg 75%
    03:00 +21°C° 0.2 mm 2 mps 739 mmHg 77%
    04:00 +21°C° 0.2 mm 2 mps 739 mmHg 79%
    05:00 +23°C° 0.1 mm 2 mps 739 mmHg 77%
    06:00 +23°C° 0.1 mm 2 mps 739 mmHg 74%
    07:00 +24°C° 0.1 mm 2 mps 739 mmHg 72%
    08:00 +25°C° 0.1 mm 3 mps 739 mmHg 68%
    09:00 +26°C° 0.1 mm 3 mps 739 mmHg 64%
    10:00 +28°C° 0.1 mm 3 mps 739 mmHg 59%
    11:00 +28°C° 0.4 mm 3 mps 738 mmHg 57%
    12:00 +28°C° 0.4 mm 2 mps 738 mmHg 55%
    13:00 +28°C° 0.4 mm 2 mps 738 mmHg 53%
    14:00 +29°C° 0.1 mm 2 mps 738 mmHg 52%
    15:00 +29°C° 0.1 mm 2 mps 738 mmHg 52%
    16:00 +29°C° 0.1 mm 2 mps 738 mmHg 51%
    17:00 +27°C° 0.6 mm 3 mps 738 mmHg 60%
    18:00 +25°C° 0.6 mm 3 mps 738 mmHg 68%
    19:00 +22°C° 0.6 mm 3 mps 738 mmHg 77%
    20:00 +21°C° 0.1 mm 3 mps 738 mmHg 82%
    21:00 +20°C° 0.1 mm 3 mps 738 mmHg 87%
    22:00 +19°C° 0.1 mm 3 mps 738 mmHg 92%
    23:00 +19°C° 0.2 mm 3 mps 738 mmHg 91%

    25 August, Saturday

    Time Temperature Precipitation Wind Pressure Humidity
    00:00 +18°C° 0.2 mm 3 mps 739 mmHg 91%
    01:00 +18°C° 0.2 mm 3 mps 739 mmHg 91%
    02:00 +18°C° 0.5 mm 3 mps 739 mmHg 89%
    03:00 +17°C° 0.5 mm 3 mps 739 mmHg 88%
    04:00 +17°C° 0.5 mm 4 mps 739 mmHg 87%
    05:00 +15°C° 0.5 mm 4 mps 740 mmHg 87%
    06:00 +15°C° 0.5 mm 4 mps 740 mmHg 88%
    07:00 +15°C° 0.5 mm 4 mps 740 mmHg 89%
    08:00 +14°C° 0.7 mm 4 mps 741 mmHg 88%
    09:00 +14°C° 0.7 mm 4 mps 741 mmHg 88%
    10:00 +14°C° 0.7 mm 4 mps 741 mmHg 88%
    11:00 +14°C° 0.7 mm 4 mps 741 mmHg 87%
    12:00 +14°C° 0.7 mm 3 mps 742 mmHg 86%
    13:00 +14°C° 0.7 mm 3 mps 742 mmHg 84%
    14:00 +14°C° 1.1 mm 3 mps 742 mmHg 85%
    15:00 +15°C° 1.1 mm 2 mps 742 mmHg 85%
    16:00 +15°C° 1.1 mm 1 mps 742 mmHg 85%
    17:00 +14°C° 0.4 mm 1 mps 742 mmHg 87%
    18:00 +14°C° 0.4 mm 1 mps 742 mmHg 88%
    19:00 +14°C° 0.4 mm 1 mps 742 mmHg 90%
    20:00 +13°C° 0 mm 1 mps 742 mmHg 89%
    21:00 +13°C° 0 mm 1 mps 742 mmHg 88%
    22:00 +13°C° 0 mm 1 mps 742 mmHg 88%
    23:00 +13°C° 0 mm 1 mps 742 mmHg 87%
    Show more